User: anonymous   Login
Location: Coffee Creek Observatory
(38.8077°N, 94.7179°W)
Time: 23:41:55
(UTC-06:00)
Language:

Lacrosse 4 Rocket - Orbit

View from above orbital plane
View from above orbital plane
View from above satellite
View from above satellite

Ground track
Ground track

The orbit data is extracted from the following two-line orbital elements,

1 26474U 00047B   14355.53242757  .00005004  00000-0  46458-3 0  8232
2 26474 067.9944 189.3321 0063988 243.3351 116.1229 14.93665167779571
Epoch (UTC): 21 December 2014 12:46:41
Eccentricity: 0.0063988
inclination: 67.9944°
perigee height: 542 km
apogee height: 631 km
right ascension of ascending node: 189.3321°
argument of perigee: 243.3351°
revolutions per day: 14.93665167
mean anomaly at epoch: 116.1229°
orbit number at epoch: 77957

The dashed part of the orbit path shows where the satellite is in the earth's shadow,  

DLR